Islip, NY

7:53 AM EDT on July 28, 2017 (GMT -0400)
Long Island Mac Arthur

Weather History for KISP - July, 2013

Change the Weather History Date:

Saturday, July 6, 2013

  Actual Average Record
Temperature  
Mean Temperature 83 °F 73 °F  
Max Temperature 92 °F 81 °F 101 °F (2010)
Min Temperature 74 °F 65 °F 52 °F (1979)
Degree Days  
Heating Degree Days 0 0  
Month to date heating degree days 0 0  
Since 1 June heating degree days 12 38  
Since 1 July heating degree days 0 0  
Cooling Degree Days 18 8  
Month to date cooling degree days 79 48  
Year to date cooling degree days 280 212  
Since 1 June cooling degree days 248 188  
Growing Degree Days 32 (Base 50)    
Moisture  
Dew Point 72 °F    
Average Humidity 73    
Maximum Humidity 93    
Minimum Humidity 52    
Precipitation  
Precipitation 0.00 in 0.10 in 0.92 in (2006)
Month to date precipitation 0.21 0.58  
Year to date precipitation 23.71 24.31  
Snow  
Snow 0.00 in 0.00 in - ()
Month to date snowfall 0.0 0.0  
Since 1 July snowfall 0.0 0.0  
Snow Depth 0.00 in    
Sea Level Pressure  
Sea Level Pressure 30.07 in    
Wind  
Wind Speed 9 mph (SW)    
Max Wind Speed 18 mph    
Max Gust Speed 23 mph    
Visibility 10 miles    
Events      
T = Trace of Precipitation, MM = Missing Value Source: NWS Daily Summary

Daily Weather History Graph

Daily Weather History Graph

Search for Another Location

Airport or City:

Trip Planner

Search our weather history database for the weather conditions in past years. The results will help you decide how hot, cold, wet, or windy it might be!

Date:

Astronomy

Jul. 06, 2013 Rise Set
Actual Time 5:27 AM EDT 8:26 PM EDT
Civil Twilight 4:54 AM EDT 8:59 PM EDT
Nautical Twilight 4:12 AM EDT 9:41 PM EDT
Astronomical Twilight 3:23 AM EDT 10:30 PM EDT
Moon 4:11 AM EDT (7/6) 7:05 PM EDT (7/6)
Length of Visible Light 16h 04m
Length of Day
14h 58m
Waning Crescent, 2% of the Moon is Illuminated
Jul 6
Waning Crescent
Jul 8
New
Jul 15
First Quarter
Jul 22
Full
Jul 29
Last Quarter

Hourly Weather History & Observations

Time (EDT) Temp. Heat Index Dew Point Humidity Pressure Visibility Wind Dir Wind Speed Gust Speed Precip Events Conditions
12:56 AM 75.0 °F - 70.0 °F 84% 30.12 in 10.0 mi SW 6.9 mph - N/A   Clear
1:56 AM 75.0 °F - 71.1 °F 87% 30.12 in 10.0 mi SW 6.9 mph - N/A   Clear
2:56 AM 75.0 °F - 71.1 °F 87% 30.12 in 10.0 mi SW 9.2 mph - N/A   Clear
3:56 AM 75.0 °F - 71.1 °F 87% 30.12 in 10.0 mi SW 6.9 mph - N/A   Clear
4:56 AM 73.9 °F - 71.1 °F 91% 30.11 in 10.0 mi SW 8.1 mph - N/A   Clear
5:56 AM 73.9 °F - 71.1 °F 91% 30.12 in 10.0 mi SW 5.8 mph - N/A   Partly Cloudy
6:56 AM 75.9 °F - 72.0 °F 87% 30.12 in 10.0 mi SW 8.1 mph - N/A   Scattered Clouds
7:56 AM 79.0 °F - 72.0 °F 79% 30.12 in 10.0 mi WSW 8.1 mph - N/A   Scattered Clouds
8:56 AM 82.9 °F 88.8 °F 73.0 °F 72% 30.12 in 10.0 mi WSW 8.1 mph - N/A   Scattered Clouds
9:56 AM 84.9 °F 92.1 °F 73.9 °F 69% 30.10 in 10.0 mi Variable 4.6 mph - N/A   Scattered Clouds
10:56 AM 87.1 °F 95.4 °F 73.9 °F 65% 30.09 in 10.0 mi SW 9.2 mph - N/A   Scattered Clouds
11:56 AM 88.0 °F 96.5 °F 73.9 °F 63% 30.08 in 10.0 mi South 10.4 mph - N/A   Scattered Clouds
12:56 PM 89.1 °F 97.0 °F 73.0 °F 59% 30.08 in 10.0 mi SSW 13.8 mph - N/A   Scattered Clouds
1:56 PM 91.0 °F 98.2 °F 72.0 °F 53% 30.06 in 10.0 mi SW 12.7 mph - N/A   Mostly Cloudy
2:56 PM 91.9 °F 99.5 °F 72.0 °F 52% 30.05 in 10.0 mi SW 17.3 mph - N/A   Mostly Cloudy
3:56 PM 89.1 °F 96.0 °F 72.0 °F 57% 30.05 in 10.0 mi SW 12.7 mph 20.7 mph N/A   Mostly Cloudy
4:56 PM 89.1 °F 96.0 °F 72.0 °F 57% 30.03 in 10.0 mi SSW 11.5 mph - N/A   Scattered Clouds
5:56 PM 87.1 °F 93.6 °F 72.0 °F 61% 30.02 in 10.0 mi SSW 11.5 mph - N/A   Scattered Clouds
6:56 PM 84.9 °F 90.1 °F 71.1 °F 63% 30.02 in 10.0 mi SSW 9.2 mph - N/A   Scattered Clouds
7:56 PM 82.0 °F 85.9 °F 70.0 °F 67% 30.01 in 10.0 mi SW 6.9 mph - N/A   Scattered Clouds
8:56 PM 79.0 °F - 71.1 °F 77% 30.02 in 10.0 mi SW 5.8 mph - N/A   Scattered Clouds
9:56 PM 79.0 °F - 71.1 °F 77% 30.03 in 10.0 mi SW 6.9 mph - N/A   Partly Cloudy
10:56 PM 77.0 °F - 71.1 °F 82% 30.04 in 10.0 mi SW 5.8 mph - N/A   Partly Cloudy
11:56 PM 75.9 °F - 71.1 °F 85% 30.04 in 10.0 mi SW 5.8 mph - N/A   Partly Cloudy